Location: Unspecified
(0.0000°N, 0.0000°E)
Time: 22:13:00
(UTC+00:00)

Explorer 11/Cluster Stage 4 - All Passes

Search period start: 25 April 2017 00:00
Search period end: 05 May 2017 00:00
Orbit: 467 x 1263 km, 28.8° (Epoch: 24 April)

Date Brightness Start Highest point End Pass type
(mag) Time Alt. Az. Time Alt. Az. Time Alt. Az.
25 Apr - 00:12:36 10° NW 00:13:58 12° NNW 00:15:20 10° N night (unlit)
25 Apr - 07:31:30 10° N 07:34:51 15° NNE 07:38:30 10° ENE daylight
25 Apr - 09:17:21 10° NW 09:24:04 52° NNE 09:31:54 10° ESE daylight
25 Apr - 11:06:07 10° WNW 11:13:33 52° SSW 11:21:35 10° SE daylight
25 Apr - 12:58:13 10° WSW 13:03:38 19° SSW 13:09:01 10° SSE daylight
25 Apr - 20:23:30 10° SSW 20:27:13 20° SSE 20:30:27 10° ESE visible
25 Apr - 22:11:29 10° WSW 22:15:53 71° NNW 22:19:37 10° NE night (unlit)
26 Apr - 07:21:04 10° N 07:24:49 17° NNE 07:29:00 10° ENE daylight
26 Apr - 09:07:14 10° NW 09:13:52 62° NNE 09:21:45 10° ESE daylight
26 Apr - 10:56:16 10° W 11:03:22 44° SSW 11:11:10 10° SE daylight
26 Apr - 12:48:51 10° WSW 12:53:36 16° SSW 12:58:22 10° SSE daylight
26 Apr - 20:12:53 10° SSW 20:17:22 26° SSE 20:21:07 10° E visible
26 Apr - 22:01:28 10° WSW 22:05:57 52° NNW 22:09:42 10° NE night (unlit)
27 Apr - 07:10:43 10° NNW 07:14:46 19° NNE 07:19:22 10° ENE daylight
27 Apr - 08:57:12 10° NW 09:03:41 73° NNE 09:11:32 10° ESE daylight
27 Apr - 10:46:30 10° W 10:53:13 37° SSW 11:00:41 10° SE daylight
27 Apr - 12:39:40 10° SW 12:43:36 14° SSW 12:47:35 10° S daylight
27 Apr - 18:16:17 10° S 18:17:46 11° SSE 18:19:11 10° SSE visible
27 Apr - 20:02:20 10° SW 20:07:28 34° SSE 20:11:39 10° E visible
27 Apr - 21:51:31 10° WSW 21:55:59 40° NNW 21:59:44 10° NE night (unlit)
28 Apr - 07:00:27 10° NNW 07:04:42 22° NNE 07:09:39 10° E daylight
28 Apr - 08:47:13 10° WNW 08:53:31 86° NNE 09:01:16 10° ESE daylight
28 Apr - 10:36:50 10° W 10:43:07 31° SSW 10:50:08 10° SSE daylight
28 Apr - 12:30:46 10° SW 12:33:39 12° SSW 12:36:36 10° S daylight
28 Apr - 18:04:39 10° S 18:07:55 14° SSE 18:10:55 10° SE daylight
28 Apr - 19:51:53 10° SW 19:57:32 44° SSE 20:02:05 10° E visible
28 Apr - 21:41:36 10° W 21:46:00 31° NNW 21:49:42 10° NNE night (unlit)
29 Apr - 06:50:15 10° NNW 06:54:37 25° NNE 06:59:50 10° E daylight
29 Apr - 08:37:18 10° WNW 08:43:23 80° SSW 08:50:56 10° SE daylight
29 Apr - 10:27:16 10° W 10:33:03 26° SSW 10:39:32 10° SSE daylight
29 Apr - 12:22:36 10° SSW 12:23:45 10° SSW 12:24:53 10° S daylight
29 Apr - 17:53:37 10° SSW 17:58:03 18° SSE 18:01:58 10° ESE daylight
29 Apr - 19:41:28 10° SW 19:47:35 57° SSE 19:52:24 10° ENE visible
29 Apr - 21:31:46 10° W 21:36:00 26° NNW 21:39:36 10° NNE visible
30 Apr - 06:40:06 10° NNW 06:44:32 29° NNE 06:49:56 10° E daylight
30 Apr - 08:27:28 10° WNW 08:33:17 66° SSW 08:40:33 10° SE daylight
30 Apr - 10:17:49 10° WSW 10:23:02 22° SSW 10:28:50 10° SSE daylight
30 Apr - 17:42:47 10° SSW 17:48:07 22° SSE 17:52:45 10° ESE daylight
30 Apr - 19:31:06 10° SW 19:37:34 73° SSE 19:42:38 10° ENE visible
30 Apr - 21:21:59 10° W 21:26:00 21° NNW 21:29:27 10° NNE visible
01 May - 06:30:01 10° NNW 06:34:28 35° NNE 06:39:59 10° E daylight
01 May - 08:17:41 10° WNW 08:23:13 53° SSW 08:30:08 10° SE daylight
01 May - 10:08:32 10° WSW 10:13:03 18° SSW 10:18:03 10° SSE daylight
01 May - 15:46:26 10° S 15:47:38 10° SSE 15:48:48 10° SSE daylight
01 May - 17:32:04 10° SSW 17:38:09 27° SSE 17:43:21 10° E daylight
01 May - 19:20:47 10° WSW 19:27:32 90° WNW 19:32:49 10° ENE visible
01 May - 21:12:17 10° WNW 21:15:58 18° NNW 21:19:12 10° N visible
02 May - 06:19:58 10° NW 06:24:25 42° NNE 06:29:58 10° ESE daylight
02 May - 08:08:00 10° W 08:13:11 43° SSW 08:19:39 10° SE daylight
02 May - 09:59:27 10° SW 10:03:07 15° SSW 10:07:06 10° SSE daylight
02 May - 15:34:37 10° S 15:37:44 12° SSE 15:40:44 10° SE daylight
02 May - 17:21:25 10° SW 17:28:08 32° SSE 17:33:51 10° E daylight
02 May - 19:10:30 10° WSW 19:17:26 74° NNW 19:22:55 10° NE visible
02 May - 21:02:42 10° WNW 21:05:58 15° NNW 21:08:53 10° N visible
03 May - 06:10:00 10° NW 06:14:23 53° NNE 06:19:53 10° ESE daylight
03 May - 07:58:24 10° W 08:03:13 34° SSW 08:09:07 10° SE daylight
03 May - 09:50:45 10° SW 09:53:14 12° SSW 09:55:51 10° S daylight
03 May - 15:23:33 10° SSW 15:27:48 15° SSE 15:31:51 10° SE daylight
03 May - 17:10:51 10° SW 17:18:04 39° SSE 17:24:13 10° E daylight
03 May - 19:00:17 10° WSW 19:07:19 61° NNW 19:12:57 10° NE visible
03 May - 20:53:15 10° WNW 20:55:58 13° NNW 20:58:26 10° N visible
04 May - 06:00:05 10° NW 06:04:22 68° NNE 06:09:46 10° ESE daylight
04 May - 07:48:54 10° W 07:53:16 27° SSW 07:58:31 10° SSE daylight
04 May - 15:12:42 10° SSW 15:17:48 18° SSE 15:22:41 10° ESE daylight
04 May - 17:00:20 10° SW 17:07:58 47° SSE 17:14:29 10° E daylight
04 May - 18:50:06 10° WSW 18:57:12 51° NNW 19:02:56 10° NE visible
04 May - 20:44:03 10° NW 20:45:58 11° NNW 20:47:45 10° NNW visible
